This demonstration page uses our WeatherBlox Daily Observations layout. Learn more.

Left ArrowRight Arrow

36.17497, -115.13722

Hourly Observations for August 6, 2016

Temp ( °F °C ) Dew Point ( °F °C ) Humidity (%) Winds ( mph kmh ) Pressure ( in mb ) Visibility ( mi km ) Precip ( " mm )
12:53 am 00:53 Clear 90 32.2 54 12.2 29 29 SW 7 11 29.74 1007 10 16.0934 0 0
1:53 am 01:53 Clear 88 31.1 41 5 19 19 SSW 9 15 29.75 1007 10 16.0934 0 0
2:53 am 02:53 Clear 87 30.6 38 3.3 18 18 S 10 17 29.76 1008 10 16.0934 0 0
3:53 am 03:53 Clear 86 30 40 4.4 20 20 SSW 12 19 29.76 1008 10 16.0934 0 0
4:53 am 04:53 Clear 83 28.3 39 3.9 21 21 S 6 9 29.78 1008 10 16.0934 0 0
5:53 am 05:53 Sunny 83 28.3 38 3.3 20 20 Calm 29.8 1009 10 16.0934 0 0
6:53 am 06:53 Sunny 85 29.4 38 3.3 19 19 Calm 29.82 1010 10 16.0934 0 0
7:53 am 07:53 Sunny 88 31.1 40 4.4 18 18 Calm 29.83 1010 10 16.0934 0 0
8:53 am 08:53 Sunny 90 32.2 38 3.3 16 16 E 3 6 29.83 1010 10 16.0934 0 0
9:53 am 09:53 Sunny 92 33.3 41 5 17 17 E 8 13 29.83 1010 10 16.0934 0 0
10:53 am 10:53 Sunny 96 35.6 46 7.8 18 18 ESE 10 17 29.82 1010 10 16.0934 0 0
11:53 am 11:53 Sunny 97 36.1 51 10.6 21 21 SSE 13 20 29.8 1009 10 16.0934 0 0
12:53 pm 12:53 Mostly Sunny 99 37.2 52 11.1 21 21 SSW 13 20 29.78 1008 10 16.0934 0 0
1:53 pm 13:53 Sunny 101 38.3 53 11.7 20 20 S 17 28 29.75 1008 10 16.0934 0 0
2:53 pm 14:53 Sunny 102 38.9 48 8.9 16 16 S 10 17 29.72 1006 10 16.0934 0 0
3:53 pm 15:53 Partly Cloudy 103 39.4 49 9.4 16 16 SSW 15 24 29.69 1006 10 16.0934 0 0
4:53 pm 16:53 Sunny 104 40 47 8.3 15 15 S 16 26 29.68 1005 10 16.0934 0 0
5:53 pm 17:53 Mostly Sunny 103 39.4 46 7.8 15 15 S 13 20 29.67 1005 10 16.0934 0 0
6:53 pm 18:53 Sunny 101 38.3 44 6.7 14 14 SSW 13 20 29.66 1004 10 16.0934 0 0
7:53 pm 19:53 Clear 99 37.2 45 7.2 16 16 SSW 8 13 29.67 1005 10 16.0934 0 0
8:53 pm 20:53 Clear 98 36.7 46 7.8 17 17 SSW 8 13 29.68 1005 10 16.0934 0 0
9:53 pm 21:53 Clear 95 35 46 7.8 19 19 SSW 5 7 29.7 1006 10 16.0934 0 0
10:53 pm 22:53 Clear 94 34.4 44 6.7 18 18 SSW 14 22 29.71 1006 10 16.0934 0 0
11:53 pm 23:53 Clear 92 33.3 45 7.2 20 20 SW 9 15 29.71 1006 10 16.0934 0 0

Powered by AerisWeather